Weather History for Aurora, NE

Change the Weather History Date:

Thursday, November 8, 2012

  Actual Average Record
Temperature  
Mean Temperature 51 °F -  
Max Temperature 64 °F 52 °F 84 °F (2006)
Min Temperature 38 °F 30 °F 2 °F (1991)
Degree Days  
Heating Degree Days 14    
Growing Degree Days 1 (Base 50)    
Moisture  
Dew Point 27 °F    
Average Humidity 47    
Maximum Humidity 69    
Minimum Humidity 25    
Precipitation  
Precipitation 0.00 in - - ()
Sea Level Pressure  
Sea Level Pressure 29.88 in    
Wind  
Wind Speed 10 mph (SSW)    
Max Wind Speed 15 mph    
Max Gust Speed 21 mph    
Visibility 10 miles    
Events      
Averages and records for this station are not official NWS values.
T = Trace of Precipitation, MM = Missing Value Source: NWS Daily Summary

Daily Weather History Graph

Daily Weather History Graph

Search for Another Location

Airport:

Trip Planner

Search our weather history database for the weather conditions in past years. The results will help you decide how hot, cold, wet, or windy it might be!

Date:

Astronomy

Nov. 08, 2012 Rise Set
Actual Time 7:11 AM CST 5:19 PM CST
Civil Twilight 6:42 AM CST 5:48 PM CST
Nautical Twilight 6:09 AM CST 6:21 PM CST
Astronomical Twilight 5:37 AM CST 6:53 PM CST
Moon 1:05 AM CST (11/8) 2:03 PM CST (11/8)
Length of Visible Light 11h 05m
Length of Day
10h 07m
Waning Crescent, 32% of the Moon is Illuminated
Nov 8
Waning Crescent
Nov 13
New
Nov 20
First Quarter
Nov 28
Full
Dec 6
Last Quarter

Hourly Weather History & Observations

Time (CST) Temp. Windchill Dew Point Humidity Pressure Visibility Wind Dir Wind Speed Gust Speed Precip Events Conditions
12:15 AM 42.8 °F 35.8 °F 25.7 °F 51% 29.95 in 10.0 mi South 13.8 mph - N/A   Clear
12:35 AM 41.9 °F 35.4 °F 25.7 °F 53% 29.94 in 10.0 mi South 11.5 mph - N/A   Clear
12:55 AM 42.8 °F 36.2 °F 25.5 °F 51% 29.94 in 10.0 mi South 12.7 mph - N/A   Clear
1:15 AM 42.8 °F 35.4 °F 25.5 °F 51% 29.93 in 10.0 mi South 15.0 mph 18.4 mph N/A   Clear
1:35 AM 43.2 °F 35.9 °F 25.5 °F 50% 29.92 in 10.0 mi South 15.0 mph 19.6 mph N/A   Clear
1:55 AM 43.9 °F 37.5 °F 25.5 °F 48% 29.92 in 10.0 mi South 12.7 mph 20.7 mph N/A   Clear
2:35 AM 43.0 °F 36.0 °F 25.5 °F 50% 29.91 in 10.0 mi South 13.8 mph 19.6 mph N/A   Clear
2:55 AM 42.1 °F 35.2 °F 25.7 °F 52% 29.90 in 10.0 mi South 12.7 mph 18.4 mph N/A   Clear
3:15 AM 41.9 °F 35.0 °F 25.7 °F 53% 29.89 in 10.0 mi South 12.7 mph - N/A   Clear
3:35 AM 41.9 °F 34.3 °F 25.7 °F 53% 29.89 in 10.0 mi South 15.0 mph 20.7 mph N/A   Clear
3:55 AM 41.4 °F 34.0 °F 25.7 °F 54% 29.89 in 10.0 mi South 13.8 mph 20.7 mph N/A   Clear
4:15 AM 41.2 °F 34.1 °F 25.7 °F 54% 29.89 in 10.0 mi South 12.7 mph - N/A   Clear
4:35 AM 41.2 °F 34.5 °F 26.1 °F 55% 29.89 in 10.0 mi South 11.5 mph 18.4 mph N/A   Clear
4:55 AM 41.0 °F 34.7 °F 26.2 °F 56% 29.89 in 10.0 mi South 10.4 mph - N/A   Clear
5:15 AM 41.4 °F 34.7 °F 26.2 °F 55% 29.89 in 10.0 mi South 11.5 mph - N/A   Clear
5:35 AM 41.4 °F 35.2 °F 26.2 °F 55% 29.89 in 10.0 mi South 10.4 mph - N/A   Clear
5:55 AM 40.8 °F 35.6 °F 26.4 °F 57% 29.89 in 10.0 mi South 8.1 mph - N/A   Clear
6:15 AM 40.6 °F 34.8 °F 26.2 °F 57% 29.89 in 10.0 mi South 9.2 mph - N/A   Clear
6:35 AM 40.6 °F 34.3 °F 26.4 °F 57% 29.89 in 10.0 mi South 10.4 mph - N/A   Clear
6:55 AM 40.3 °F 34.9 °F 26.4 °F 58% 29.88 in 10.0 mi South 8.1 mph - N/A   Clear
7:15 AM 40.1 °F 34.1 °F 26.6 °F 59% 29.88 in 10.0 mi South 9.2 mph - N/A   Clear
7:35 AM 40.3 °F 33.9 °F 26.6 °F 58% 29.88 in 10.0 mi South 10.4 mph - N/A   Clear
7:55 AM 40.6 °F 34.8 °F 26.6 °F 57% 29.89 in 10.0 mi South 9.2 mph - N/A   Clear
8:15 AM 41.7 °F 37.3 °F 27.3 °F 57% 29.89 in 10.0 mi South 6.9 mph - N/A   Clear
8:35 AM 43.0 °F 38.8 °F 27.3 °F 54% 29.91 in 10.0 mi South 6.9 mph - N/A   Clear
8:55 AM 45.0 °F 39.7 °F 27.9 °F 51% 29.90 in 10.0 mi South 10.4 mph - N/A   Clear
9:15 AM 47.3 °F - 28.2 °F 48% 29.92 in 10.0 mi SW 8.1 mph - N/A   Clear
9:35 AM 49.3 °F - 28.6 °F 45% 29.91 in 10.0 mi SSW 10.4 mph - N/A   Clear
9:55 AM 51.8 °F - 28.4 °F 41% 29.90 in 10.0 mi SSW 15.0 mph 18.4 mph N/A   Clear
10:15 AM 54.0 °F - 27.9 °F 37% 29.90 in 10.0 mi SSW 15.0 mph 20.7 mph N/A   Clear
10:35 AM 55.6 °F - 27.9 °F 35% 29.89 in 10.0 mi SSW 12.7 mph - N/A   Clear
10:55 AM 57.2 °F - 27.7 °F 32% 29.89 in 10.0 mi SW 11.5 mph 16.1 mph N/A   Clear
11:15 AM 58.5 °F - 27.7 °F 31% 29.88 in 10.0 mi WSW 9.2 mph - N/A   Clear
11:35 AM 59.9 °F - 27.5 °F 29% 29.88 in 10.0 mi WSW 8.1 mph - N/A   Clear
11:55 AM 60.3 °F - 27.5 °F 29% 29.87 in 10.0 mi WSW 6.9 mph - N/A   Clear
12:15 PM 61.0 °F - 27.5 °F 28% 29.86 in 10.0 mi SSW 6.9 mph - N/A   Clear
12:55 PM 62.4 °F - 27.7 °F 27% 29.85 in 10.0 mi SW 5.8 mph - N/A   Clear
1:15 PM 62.4 °F - 27.5 °F 27% 29.84 in 10.0 mi SW 3.5 mph - N/A   Clear
1:35 PM 63.3 °F - 27.9 °F 26% 29.83 in 10.0 mi SE 3.5 mph - N/A   Clear
1:55 PM 63.7 °F - 27.9 °F 26% 29.83 in 10.0 mi SSW 3.5 mph - N/A   Clear
2:15 PM 63.7 °F - 27.5 °F 25% 29.83 in 5.0 mi Calm Calm - N/A   Haze
2:35 PM 64.0 °F - 28.0 °F 26% 29.84 in 10.0 mi Calm Calm - N/A   Clear
2:55 PM 64.4 °F - 28.0 °F 25% 29.84 in 10.0 mi Calm Calm - N/A   Clear
3:15 PM 64.4 °F - 28.0 °F 25% 29.84 in 10.0 mi SE 3.5 mph - N/A   Clear
3:35 PM 64.6 °F - 28.4 °F 26% 29.85 in 10.0 mi Calm Calm - N/A   Clear
3:55 PM 64.2 °F - 28.0 °F 26% 29.84 in 10.0 mi Calm Calm - N/A   Clear
4:15 PM 63.9 °F - 27.0 °F 25% 29.85 in 10.0 mi North 6.9 mph - N/A   Clear
4:35 PM 61.7 °F - 26.6 °F 26% 29.86 in 10.0 mi North 6.9 mph - N/A   Clear
4:55 PM 58.5 °F - 27.1 °F 30% 29.86 in 10.0 mi North 6.9 mph - N/A   Clear
5:15 PM 54.1 °F - 28.0 °F 37% 29.86 in 5.0 mi NNE 6.9 mph - N/A   Haze
5:35 PM 52.7 °F - 27.5 °F 38% 29.86 in 4.0 mi NNE 5.8 mph - N/A   Haze
5:55 PM 48.2 °F - 27.9 °F 45% 29.87 in 10.0 mi NE 6.9 mph - N/A   Clear
6:15 PM 48.4 °F - 27.3 °F 44% 29.88 in 10.0 mi Calm Calm - N/A   Clear
6:35 PM 49.6 °F - 27.5 °F 42% 29.89 in 10.0 mi Calm Calm - N/A   Clear
6:55 PM 50.4 °F - 28.0 °F 42% 29.88 in 10.0 mi NNE 5.8 mph - N/A   Clear
7:15 PM 47.7 °F - 27.7 °F 46% 29.89 in 10.0 mi North 5.8 mph - N/A   Clear
7:35 PM 43.7 °F 39.7 °F 27.1 °F 52% 29.88 in 10.0 mi NNE 6.9 mph - N/A   Clear
7:55 PM 44.1 °F 39.5 °F 27.5 °F 52% 29.88 in 10.0 mi North 8.1 mph - N/A   Clear
8:15 PM 42.8 °F 38.0 °F 27.5 °F 55% 29.88 in 10.0 mi North 8.1 mph - N/A   Clear
8:35 PM 42.4 °F 37.5 °F 28.4 °F 58% 29.87 in 10.0 mi North 8.1 mph - N/A   Clear
8:55 PM 42.3 °F 36.8 °F 29.3 °F 60% 29.86 in 10.0 mi North 9.2 mph - N/A   Clear
9:15 PM 42.3 °F 37.3 °F 29.7 °F 61% 29.86 in 10.0 mi North 8.1 mph - N/A   Clear
9:35 PM 42.1 °F 37.1 °F 30.0 °F 62% 29.87 in 10.0 mi North 8.1 mph - N/A   Clear
9:55 PM 41.2 °F 36.0 °F 29.7 °F 64% 29.87 in 10.0 mi North 8.1 mph - N/A   Clear
10:15 PM 40.5 °F 34.6 °F 29.7 °F 65% 29.87 in 10.0 mi North 9.2 mph - N/A   Clear
10:35 PM 39.6 °F 34.0 °F 29.3 °F 67% 29.87 in 10.0 mi North 8.1 mph - N/A   Clear
10:55 PM 39.7 °F 34.3 °F 29.3 °F 66% 29.86 in 10.0 mi North 8.1 mph - N/A   Clear
11:15 PM 39.0 °F 32.8 °F 29.3 °F 68% 29.86 in 10.0 mi North 9.2 mph - N/A   Clear
11:35 PM 38.7 °F 32.4 °F 29.3 °F 69% 29.84 in 5.0 mi North 9.2 mph - N/A   Haze
11:55 PM 38.7 °F 32.4 °F 29.3 °F 69% 29.84 in 7.0 mi North 9.2 mph - N/A   Clear